Temperature
-12 -12 -12 -12 -12 -12 -12 -12 -12 -12 -11 -11 -10 -9 -9 -8 -7 -7 -6 -6 -5 -4 -2 -1 -1 0 1 1 2 3 4 4 5 7 7 7 8 9 9 9 9 9 10
-12 -12 -12 -12 -13 -13 -13 -13 -13 -13 -12 -12 -11 -10 -9 -8 -7 -7 -7 -6 -6 -5 -3 -2 -1 -0 0 1 2 2 3 4 4 5 6 7 8 8 8 8 8 8 9
-12 -12 -13 -13 -13 -13 -13 -13 -13 -13 -13 -12 -11 -11 -10 -9 -8 -7 -7 -7 -6 -5 -4 -4 -3 -2 -0 0 1 2 3 3 4 4 5 6 7 7 7 7 7 7 7
-12 -13 -13 -13 -14 -14 -14 -14 -13 -13 -13 -13 -12 -11 -10 -9 -8 -8 -7 -7 -7 -6 -5 -4 -3 -3 -2 -0 0 1 2 3 3 4 4 5 6 6 6 6 6 6 6
-12 -12 -13 -13 -13 -14 -14 -14 -14 -13 -13 -13 -13 -12 -11 -10 -9 -8 -7 -8 -7 -7 -6 -5 -4 -3 -2 -1 -0 0 1 2 2 3 4 4 5 5 5 6 5 5 5
-12 -12 -13 -13 -13 -14 -14 -14 -14 -14 -13 -13 -13 -13 -12 -11 -10 -8 -8 -8 -8 -8 -7 -6 -5 -4 -3 -2 -1 -1 -0 1 1 2 2 3 4 4 5 5 5 5 4
-12 -12 -12 -13 -13 -14 -14 -14 -14 -14 -14 -13 -13 -13 -12 -12 -10 -9 -8 -8 -8 -8 -8 -7 -7 -6 -5 -3 -3 -2 -1 -1 -0 1 1 2 2 3 4 4 4 4 4
-11 -12 -12 -13 -14 -14 -14 -14 -14 -14 -14 -14 -14 -13 -13 -12 -11 -9 -9 -9 -9 -9 -8 -8 -7 -7 -6 -5 -4 -3 -3 -2 -2 -1 -0 -0 1 2 2 3 3 3 3
-11 -12 -13 -14 -14 -14 -14 -14 -14 -15 -14 -14 -14 -13 -13 -12 -11 -10 -9 -9 -9 -9 -8 -8 -8 -7 -7 -6 -5 -5 -5 -4 -4 -3 -2 -2 -1 0 1 2 2 2 2
-12 -12 -13 -14 -14 -15 -15 -15 -15 -15 -14 -14 -14 -13 -13 -12 -12 -11 -10 -9 -9 -9 -9 -8 -8 -8 -8 -7 -7 -7 -7 -6 -5 -4 -3 -3 -2 -1 -0 0 1 1 2
-11 -12 -13 -14 -14 -15 -15 -15 -15 -15 -14 -14 -14 -13 -13 -13 -12 -11 -11 -10 -10 -9 -9 -9 -9 -9 -9 -9 -9 -9 -9 -8 -7 -6 -5 -5 -4 -3 -2 -1 -1 0 1
-11 -12 -13 -13 -14 -14 -14 -15 -15 -14 -14 -14 -14 -13 -13 -13 -12 -12 -11 -11 -10 -10 -10 -10 -10 -10 -10 -10 -10 -10 -9 -9 -8 -8 -7 -7 -6 -6 -5 -4 -3 -2 -1
-11 -12 -13 -14 -14 -14 -14 -14 -14 -14 -14 -14 -14 -13 -13 -13 -13 -12 -12 -11 -11 -11 -11 -11 -11 -10 -10 -10 -11 -10 -10 -10 -10 -9 -9 -9 -9 -9 -8 -7 -6 -5 -4
-12 -13 -14 -14 -14 -14 -14 -14 -14 -14 -14 -13 -13 -13 -13 -13 -13 -13 -12 -12 -12 -12 -12 -12 -12 -12 -11 -12 -11 -11 -11 -11 -11 -11 -11 -10 -10 -10 -9 -9 -8 -8 -7
-12 -13 -14 -14 -13 -14 -14 -14 -14 -14 -14 -14 -14 -14 -13 -13 -13 -13 -13 -13 -13 -13 -13 -13 -13 -13 -13 -13 -13 -13 -13 -12 -12 -12 -11 -11 -11 -10 -10 -9 -9 -9 -9
-12 -13 -13 -13 -13 -14 -14 -14 -14 -14 -14 -14 -14 -14 -14 -14 -14 -14 -14 -14 -14 -14 -13 -14 -14 -14 -14 -14 -14 -14 -14 -14 -14 -13 -13 -12 -12 -11 -11 -10 -10 -9 -9
-12 -13 -13 -13 -14 -14 -14 -14 -14 -14 -15 -15 -15 -15 -14 -14 -14 -14 -14 -15 -14 -14 -14 -14 -15 -15 -15 -15 -15 -15 -15 -15 -15 -14 -14 -14 -13 -13 -12 -12 -11 -11 -10
-12 -13 -13 -14 -14 -14 -14 -15 -15 -15 -15 -15 -15 -15 -15 -14 -14 -15 -15 -15 -15 -15 -15 -15 -15 -15 -15 -15 -15 -15 -15 -15 -15 -15 -15 -15 -14 -14 -14 -13 -13 -12 -12
-12 -12 -13 -13 -14 -14 -14 -14 -14 -15 -15 -15 -15 -15 -15 -15 -15 -15 -15 -15 -15 -15 -15 -15 -15 -15 -15 -15 -15 -15 -16 -16 -16 -16 -16 -15 -15 -15 -15 -15 -15 -14 -13
-11 -12 -13 -13 -13 -14 -14 -14 -15 -15 -15 -15 -15 -15 -15 -15 -15 -15 -15 -15 -15 -15 -15 -15 -15 -15 -15 -15 -15 -16 -16 -16 -16 -16 -16 -16 -16 -15 -15 -15 -15 -15 -15
-10 -11 -12 -13 -13 -14 -14 -14 -15 -15 -15 -15 -15 -15 -15 -15 -15 -15 -15 -15 -15 -15 -15 -15 -15 -15 -15 -15 -15 -15 -15 -16 -16 -16 -16 -16 -16 -16 -16 -15 -15 -15 -15
-10 -10 -11 -12 -13 -13 -14 -14 -14 -15 -15 -15 -15 -15 -15 -15 -15 -15 -15 -15 -15 -15 -15 -15 -15 -15 -15 -15 -15 -15 -15 -15 -16 -16 -16 -15 -15 -15 -15 -15 -15 -15 -15
-9 -10 -11 -12 -12 -13 -13 -13 -14 -14 -15 -15 -15 -15 -15 -15 -15 -15 -15 -15 -15 -15 -14 -14 -15 -15 -15 -15 -15 -15 -15 -15 -15 -15 -15 -15 -15 -15 -15 -15 -15 -15 -15
-9 -9 -10 -11 -11 -12 -12 -13 -13 -13 -14 -14 -14 -15 -15 -15 -15 -15 -15 -15 -14 -14 -14 -14 -14 -14 -14 -15 -15 -15 -14 -14 -14 -14 -14 -14 -14 -15 -15 -15 -15 -15 -14
-9 -9 -9 -10 -11 -11 -11 -12 -12 -12 -13 -13 -13 -14 -14 -14 -14 -14 -14 -14 -14 -14 -14 -14 -14 -14 -14 -14 -14 -14 -14 -14 -14 -14 -14 -14 -14 -14 -14 -14 -14 -14 -14
-8 -9 -9 -10 -10 -10 -11 -11 -11 -11 -12 -12 -12 -13 -13 -13 -13 -13 -14 -14 -14 -14 -14 -14 -14 -14 -14 -14 -14 -14 -14 -14 -14 -14 -14 -14 -14 -14 -14 -14 -14 -14 -14
Wind_Speed
18 18 18 17 17 18 17 18 19 19 20 21 21 21 20 20 19 17 17 18 17 17 15 14 13 12 11 11 11 12 13 13 15 12 8 8 10 10 9 8 10 10 11
18 18 18 17 18 18 18 19 20 20 20 20 20 20 20 20 20 18 17 16 16 16 16 15 13 11 11 10 10 12 12 13 13 13 9 8 8 10 11 11 10 8 10
17 17 17 18 18 19 19 19 19 19 19 20 19 20 20 20 20 18 15 14 14 14 14 14 13 12 11 8 8 8 8 9 10 11 10 8 5 7 10 11 12 10 10
17 17 17 18 18 19 19 19 19 19 19 19 19 19 19 19 19 19 13 13 13 14 14 14 13 13 12 9 6 6 5 6 8 10 8 8 7 7 10 12 11 10 10
17 17 17 17 18 18 18 18 19 19 19 19 19 19 19 17 18 21 11 11 12 14 14 14 14 18 19 13 5 3 2 2 3 5 7 7 7 9 10 9 12 11 9
16 16 17 17 18 18 18 18 18 18 18 18 18 19 19 16 26 29 15 10 11 13 14 14 14 15 18 20 19 17 13 6 2 1 3 5 6 6 6 10 12 12 7
16 16 16 17 18 18 18 18 18 18 18 18 18 18 19 21 28 29 20 11 11 12 13 13 12 13 15 13 17 20 22 25 19 9 9 7 5 5 3 8 10 11 7
16 16 16 17 18 18 18 18 17 16 16 16 17 18 18 20 27 29 22 11 10 12 13 13 12 12 13 14 13 15 17 19 20 15 13 13 12 9 6 4 7 10 9
16 17 17 18 18 18 18 18 17 16 16 16 16 17 18 19 25 29 20 10 9 11 12 13 12 13 19 20 15 15 15 15 20 25 26 24 27 26 16 6 6 9 6
17 18 19 18 18 18 18 18 16 15 15 15 15 16 16 17 23 27 21 10 9 9 11 12 17 20 23 22 16 14 15 14 13 15 18 20 20 22 25 15 7 5 5
19 19 19 18 18 17 16 16 16 14 14 14 15 14 14 16 20 25 23 11 10 9 8 9 13 24 25 24 20 15 16 13 12 13 13 14 15 15 16 15 14 9 7
19 19 18 18 16 15 16 15 15 14 13 13 13 13 12 13 17 20 23 18 14 9 7 8 13 22 24 24 18 19 19 15 11 11 12 13 12 12 12 13 16 16 15
18 18 18 18 16 16 15 15 13 12 11 11 10 10 11 11 14 19 20 20 18 12 10 16 18 20 18 17 21 22 17 12 11 11 11 11 10 10 9 10 11 14 16
18 18 17 17 16 16 14 12 12 12 12 12 9 8 9 10 11 11 12 12 13 10 10 13 17 18 16 16 16 14 12 12 11 10 10 9 9 9 9 8 7 7 9
18 17 17 16 16 15 14 12 13 11 13 12 9 8 8 9 12 17 14 12 10 9 8 9 10 10 10 10 10 11 11 11 11 10 9 9 9 9 9 9 8 8 8
17 17 15 14 14 14 13 13 15 15 17 16 14 12 9 11 14 16 17 17 17 14 11 9 9 9 10 10 9 10 10 10 10 9 9 9 9 8 8 8 8 8 8
17 16 14 14 14 14 13 13 13 13 14 13 13 13 12 12 14 15 14 14 15 14 10 9 8 8 8 8 7 7 8 8 8 8 8 8 8 7 7 7 7 7 7
16 16 16 14 14 13 13 12 11 11 10 9 9 11 12 12 12 12 12 10 9 10 8 8 7 7 6 6 6 6 6 6 6 6 6 7 7 6 6 6 6 6 5
14 13 14 13 13 13 12 12 11 11 9 8 7 7 8 8 8 9 9 7 7 7 7 6 6 6 5 5 5 5 5 4 5 4 4 5 5 5 5 5 4 5 4
12 17 17 13 13 13 12 12 11 10 9 8 7 6 5 4 3 4 4 5 5 5 5 5 5 5 5 4 4 4 4 4 3 3 3 3 3 3 3 3 3 3 2
11 13 18 14 12 12 12 11 11 10 9 8 7 8 8 3 3 4 4 4 4 4 5 5 5 5 4 4 4 4 4 4 3 3 3 2 2 2 2 2 2 2 2
10 10 12 12 12 12 12 10 10 10 10 9 7 7 8 5 4 4 4 4 4 4 4 5 5 5 4 4 4 5 5 4 4 4 3 3 3 3 3 3 3 3 3
9 11 11 11 11 13 12 10 10 9 9 9 8 7 6 5 5 5 5 5 5 5 6 6 6 5 6 6 6 6 6 6 5 5 5 5 5 5 5 5 5 5 5
9 11 11 11 11 11 11 10 10 9 9 8 8 7 6 6 6 6 6 6 6 7 7 7 8 9 10 9 8 8 8 9 9 9 9 8 7 7 6 6 7 7 7
9 10 11 11 11 11 10 10 9 9 9 8 8 7 7 7 7 7 7 7 8 8 10 10 10 10 11 12 12 11 13 14 14 13 12 10 10 10 9 9 8 8 8
9 10 11 11 11 11 11 10 10 10 9 8 8 8 8 8 8 8 8 7 8 8 10 11 12 13 14 14 14 15 16 17 17 15 11 9 9 9 9 9 10 10 10
Wind_Direction
341 339 338 338 336 335 333 331 330 328 328 327 326 325 324 324 325 321 322 325 327 324 321 314 302 284 269 258 250 243 240 240 244 246 230 209 198 188 179 178 157 150 144
339 338 337 338 338 337 336 334 332 330 329 328 327 326 326 327 327 322 322 329 332 330 329 326 322 314 289 268 254 244 238 234 236 235 215 199 196 183 174 164 151 139 133
338 337 337 338 339 338 336 335 334 333 331 331 330 329 328 329 328 324 322 332 335 335 335 333 334 331 318 291 265 247 239 234 229 227 209 187 176 169 168 157 147 137 131
337 336 337 336 336 335 334 334 335 335 334 334 332 331 330 329 328 326 324 340 342 342 343 343 344 343 338 320 289 262 241 229 224 219 197 176 162 165 165 156 146 140 137
333 334 333 332 331 332 333 334 335 336 335 335 335 335 334 332 330 331 337 350 348 348 349 349 349 355 357 2 358 338 284 232 221 204 185 167 159 165 165 161 147 135 128
327 326 327 329 329 329 330 333 335 335 334 335 336 336 337 336 333 340 354 352 352 352 352 353 354 358 5 10 28 43 43 39 19 138 159 151 134 138 143 148 143 141 134
321 321 322 324 325 326 327 329 333 333 332 332 333 335 336 335 338 343 352 351 353 355 355 356 359 2 14 15 26 38 41 44 44 50 59 49 59 41 122 149 157 149 129
317 317 319 321 321 321 324 326 329 330 329 329 330 333 335 337 340 342 349 351 354 356 357 357 2 12 24 31 34 41 43 41 44 48 52 49 45 32 31 67 107 103 91
315 317 319 320 319 320 321 322 326 328 325 327 329 333 336 338 341 345 354 352 357 359 360 5 19 32 38 38 38 42 44 38 41 49 52 49 45 44 40 66 110 128 116
321 320 320 321 321 320 319 321 324 323 324 326 328 333 338 341 344 349 360 357 360 1 3 12 36 47 45 44 40 41 42 38 40 42 44 43 43 41 41 38 37 105 109
322 321 322 324 323 320 320 322 321 322 323 326 328 333 340 345 348 352 3 4 359 359 7 22 42 48 46 44 44 43 44 43 44 47 47 45 44 42 40 41 41 51 74
324 325 327 327 325 322 324 324 324 324 323 326 329 335 343 347 351 353 2 9 11 6 17 34 46 50 48 45 44 40 41 42 45 48 48 46 44 44 45 49 52 56 58
327 329 328 328 327 328 329 329 329 327 324 321 321 333 342 347 351 358 6 12 23 32 45 58 56 52 47 44 41 40 39 39 42 47 48 46 46 45 48 53 58 61 58
329 330 330 330 330 332 333 333 332 329 327 328 335 341 342 346 358 8 11 12 18 38 44 48 52 53 51 44 41 40 39 40 42 44 45 44 44 45 45 42 48 55 60
332 333 333 334 335 338 340 339 339 339 340 349 353 350 346 352 15 24 24 22 30 41 46 46 43 42 42 41 41 39 38 37 40 38 39 41 42 44 42 40 47 60 66
336 338 338 339 343 345 344 344 347 349 351 358 0 0 360 13 30 34 34 35 41 47 51 48 44 41 39 37 36 36 35 35 34 36 37 37 37 39 43 43 47 55 61
340 340 340 345 347 346 346 344 343 348 356 4 6 4 10 27 41 41 40 42 45 47 50 48 43 38 36 34 33 33 34 33 31 34 36 33 34 37 40 43 45 52 55
343 344 347 346 347 346 346 345 345 346 350 0 7 8 12 26 40 43 39 41 44 45 45 43 39 35 30 26 24 24 24 25 28 30 33 32 29 32 37 42 45 44 50
348 350 350 349 349 349 350 351 351 352 354 359 4 12 13 17 31 37 32 34 37 37 35 35 31 27 24 19 15 12 11 14 18 12 22 24 24 27 32 34 40 41 41
348 352 356 353 354 355 358 358 359 360 3 6 7 5 354 353 10 18 20 22 22 22 20 19 17 12 7 5 2 359 357 360 3 357 2 3 3 4 10 11 14 15 20
345 349 355 357 359 359 1 2 1 3 6 7 8 2 8 6 357 349 345 349 352 354 354 354 352 350 346 341 336 335 330 332 334 330 323 318 312 304 303 301 301 304 314
344 348 353 357 358 360 1 360 0 2 4 5 2 2 2 356 343 329 324 323 323 323 324 322 323 327 325 320 314 310 308 306 303 294 287 278 268 263 261 258 261 267 270
343 347 351 355 356 357 358 358 357 357 357 357 355 353 349 342 330 319 313 311 310 307 305 302 302 307 308 300 291 285 285 287 285 282 276 269 258 252 248 246 246 250 255
343 347 348 349 351 353 352 352 351 349 347 345 344 341 337 328 317 308 302 298 297 295 294 292 289 292 295 294 288 281 275 275 276 267 256 255 256 254 249 245 248 249 249
345 346 347 346 345 345 344 343 341 338 335 331 328 324 319 312 304 297 291 287 287 285 286 286 283 285 286 287 285 282 280 279 276 268 252 242 245 246 248 249 248 250 247
345 346 346 345 344 341 338 334 331 327 321 317 313 308 304 300 295 290 285 280 279 279 280 279 277 279 281 283 281 281 283 284 283 280 268 248 241 242 241 242 245 245 248
Height
1529 1522 1515 1509 1503 1497 1491 1485 1478 1472 1465 1459 1453 1447 1441 1435 1430 1425 1419 1413 1406 1400 1396 1393 1391 1389 1389 1389 1389 1391 1393 1395 1397 1400 1402 1403 1406 1409 1412 1415 1418 1422 1426
1527 1520 1514 1508 1501 1495 1489 1482 1476 1469 1463 1457 1450 1444 1438 1433 1427 1422 1417 1411 1405 1398 1393 1389 1386 1383 1382 1382 1382 1383 1385 1387 1390 1393 1395 1397 1400 1404 1408 1412 1415 1418 1422
1525 1519 1512 1506 1499 1493 1487 1480 1474 1467 1461 1455 1448 1442 1436 1430 1424 1419 1415 1410 1403 1397 1391 1387 1383 1379 1377 1376 1375 1376 1377 1379 1382 1386 1389 1391 1394 1399 1403 1408 1412 1416 1420
1524 1517 1511 1504 1498 1492 1485 1479 1472 1466 1459 1453 1447 1441 1435 1429 1422 1417 1413 1408 1402 1396 1390 1385 1380 1377 1373 1371 1369 1369 1370 1372 1375 1379 1382 1384 1388 1393 1398 1403 1408 1413 1418
1522 1516 1509 1503 1496 1490 1484 1477 1471 1464 1458 1452 1446 1439 1433 1427 1421 1416 1411 1406 1401 1395 1389 1384 1379 1375 1371 1368 1366 1365 1366 1367 1369 1372 1376 1378 1382 1387 1393 1398 1403 1410 1417
1521 1514 1508 1501 1494 1488 1482 1476 1469 1463 1457 1451 1445 1439 1432 1426 1420 1416 1410 1406 1401 1395 1389 1384 1379 1374 1370 1367 1365 1364 1363 1364 1366 1368 1370 1374 1377 1382 1387 1393 1398 1406 1414
1519 1513 1506 1499 1492 1486 1480 1475 1468 1462 1455 1450 1444 1438 1432 1426 1420 1415 1410 1406 1402 1397 1391 1386 1381 1377 1372 1369 1366 1365 1363 1363 1365 1366 1368 1370 1374 1379 1384 1390 1396 1403 1409
1517 1510 1503 1496 1490 1484 1478 1473 1467 1461 1455 1449 1444 1438 1433 1427 1421 1416 1410 1407 1403 1398 1393 1389 1385 1381 1377 1373 1369 1367 1366 1365 1365 1366 1368 1371 1374 1378 1383 1388 1393 1399 1407
1514 1507 1501 1494 1488 1482 1476 1471 1465 1459 1454 1449 1444 1438 1433 1427 1421 1416 1411 1408 1404 1400 1396 1392 1388 1385 1381 1377 1374 1372 1370 1370 1370 1370 1371 1372 1375 1379 1383 1388 1393 1398 1404
1512 1505 1499 1492 1486 1479 1474 1469 1463 1458 1453 1448 1443 1438 1433 1428 1422 1417 1413 1409 1406 1403 1399 1395 1392 1389 1386 1383 1380 1378 1376 1376 1375 1375 1375 1376 1378 1381 1384 1389 1393 1398 1402
1511 1503 1497 1490 1483 1477 1472 1467 1461 1457 1452 1448 1443 1439 1434 1430 1424 1419 1415 1412 1409 1406 1403 1400 1397 1394 1392 1389 1387 1385 1384 1382 1381 1380 1380 1380 1382 1384 1386 1389 1393 1398 1402
1509 1502 1495 1488 1482 1476 1471 1465 1460 1456 1451 1447 1443 1439 1435 1431 1426 1422 1418 1414 1411 1409 1407 1404 1402 1399 1397 1395 1393 1392 1390 1388 1387 1386 1386 1386 1387 1389 1391 1393 1395 1397 1401
1507 1500 1493 1487 1482 1476 1470 1465 1460 1455 1451 1447 1443 1440 1436 1432 1428 1425 1421 1417 1414 1411 1410 1408 1406 1404 1402 1400 1399 1397 1396 1394 1394 1393 1393 1393 1394 1395 1396 1397 1399 1401 1403
1506 1499 1492 1486 1481 1475 1470 1465 1460 1455 1450 1446 1442 1440 1438 1434 1431 1427 1424 1420 1417 1415 1413 1412 1410 1409 1407 1406 1404 1403 1401 1401 1400 1399 1399 1400 1400 1401 1402 1402 1404 1405 1407
1505 1499 1492 1487 1481 1475 1469 1465 1460 1455 1451 1447 1444 1442 1439 1436 1434 1431 1427 1424 1421 1419 1418 1416 1415 1414 1412 1411 1410 1408 1407 1406 1405 1405 1405 1405 1405 1406 1407 1408 1409 1410 1411
1506 1499 1493 1487 1481 1475 1469 1464 1460 1456 1451 1447 1445 1443 1441 1439 1436 1433 1430 1427 1425 1423 1421 1420 1419 1418 1417 1416 1415 1414 1413 1411 1410 1410 1409 1409 1410 1410 1411 1412 1413 1414 1415
1508 1501 1495 1489 1482 1475 1470 1464 1459 1456 1452 1448 1445 1443 1442 1441 1439 1436 1434 1431 1429 1427 1426 1425 1424 1423 1422 1421 1420 1419 1417 1416 1415 1414 1414 1413 1413 1414 1414 1415 1416 1417 1418
1510 1503 1497 1490 1484 1477 1472 1466 1461 1457 1453 1450 1447 1445 1444 1443 1441 1439 1437 1435 1434 1431 1430 1429 1428 1427 1425 1424 1423 1422 1421 1420 1419 1418 1417 1417 1416 1416 1417 1417 1418 1419 1420
1512 1505 1499 1492 1486 1480 1474 1468 1464 1459 1455 1452 1449 1447 1446 1445 1444 1442 1440 1439 1438 1436 1435 1433 1432 1430 1428 1427 1425 1424 1423 1422 1421 1420 1420 1419 1419 1419 1419 1419 1420 1421 1422
1514 1508 1501 1495 1488 1482 1476 1471 1466 1462 1458 1455 1452 1450 1448 1447 1446 1445 1443 1442 1441 1439 1438 1436 1434 1432 1431 1429 1427 1426 1425 1424 1422 1422 1421 1420 1420 1420 1420 1420 1421 1422 1422
1517 1510 1503 1497 1491 1485 1479 1474 1469 1465 1461 1458 1455 1452 1450 1449 1448 1446 1445 1444 1443 1441 1440 1438 1436 1434 1432 1430 1429 1427 1426 1424 1423 1422 1422 1421 1421 1421 1421 1421 1421 1422 1422
1520 1513 1506 1500 1494 1489 1483 1477 1472 1468 1464 1461 1457 1454 1452 1450 1448 1447 1446 1444 1443 1441 1440 1438 1436 1435 1433 1431 1429 1427 1426 1425 1423 1422 1421 1421 1420 1420 1420 1420 1421 1421 1421
1522 1516 1510 1504 1498 1492 1486 1481 1476 1471 1467 1463 1459 1456 1453 1451 1448 1447 1445 1443 1442 1440 1439 1437 1435 1434 1432 1430 1428 1426 1425 1424 1422 1421 1420 1420 1419 1419 1419 1419 1419 1420 1420
1525 1519 1512 1506 1500 1495 1489 1484 1478 1473 1469 1464 1461 1457 1453 1450 1448 1445 1443 1441 1440 1438 1436 1435 1433 1431 1429 1428 1426 1424 1423 1422 1420 1419 1418 1418 1417 1417 1417 1417 1417 1417 1417
1527 1521 1515 1509 1503 1497 1492 1486 1481 1475 1470 1466 1461 1457 1453 1450 1447 1444 1441 1439 1437 1435 1433 1431 1429 1427 1426 1424 1423 1421 1420 1419 1417 1416 1415 1414 1414 1413 1413 1413 1413 1413 1413
1528 1523 1517 1511 1505 1500 1494 1488 1482 1477 1471 1466 1461 1457 1452 1449 1445 1442 1438 1436 1433 1431 1428 1426 1424 1423 1421 1419 1418 1417 1416 1415 1414 1413 1411 1410 1409 1408 1407 1407 1408 1408 1408